MCUBED-2

Satellite information

Favourite Embed

Satellite Type and Status

PAYLOADIN ORBIT

Key statistics

Satellite MCUBED-2 at a glance.

Uptime

4391

Days in orbit

Revolutions

≈ 15.1

Per day

Orbit

SSO

Sun Synchronous Orbit

Inclination

120.5

Latest

Satellite identification and parameters

Extended collection of information and parameters for MCUBED-2.

Object identification

Identified? True

Debris? False

Object name: MCUBED-2

International designator: 2013-072H

Object number (NORAD): 39469

Object ID (CCSDS): 39469

Country: UNITED STATES OF AMERICA (US)

Current information (Y/N): Y

RCS size: SMALL

Orbital parameters

Period: 95.215 minutes

Inclination: 120.4969 deg

SMA: 6907.14 km

Apoapsis: 639.205 km

Periapsis: 418.805 km

RAAN: 358.5198 deg

Eccentricy: 0.01595447

Argument of periapsis: 170.2004 deg

Mean anomaly: 190.2231 deg

Mean motion: 15.12360606 rev/day

Mean motion (dot): 0.00015634 rev/day2

B* drag term: 0.00066887051 1/REarth

Two-line elements (TLE)

Creation date: Dec. 14, 2025, 3:07 a.m.

Reference frame: TEME

Reference center: EARTH

Epoch: Dec. 13, 2025, 3:31 p.m. UTC

TLE line 0: 0 MCUBED-2

TLE line 1: 1 39469U 13072H 25347.64716422 .00015634 00000-0 66887-3 0 9994

TLE line 2: 2 39469 120.4969 358.5198 0159545 170.2004 190.2231 15.12360606 89708

Live tracking on map

Real-time ground track for satellite MCUBED-2.

In-orbit conjunctions

There are no conjunctions computed for MCUBED-2, at the moment. Check back to stay up to date, as we update our databases every day.

Go to all conjunctions

Associated space launch

Classified payload for the U.S. National Reconnaissance Office.

MCUBED-2 was lifted into orbit during the mission ‘Atlas V 501 | NROL-39 (USA-247)’, on board a Atlas V 501 space rocket.

The launch took place on Dec. 6, 2013, 7:14 a.m. from Space Launch Complex 3E.

For more information about the launch, click the button.

Launch to space Atlas V 501 | NROL-39 (USA-247)
Atlas V 501 | NROL-39 (USA-247)

Agency: N/A

Status: Launch Successful

Launch date: Dec. 6, 2013, 7:14 a.m. UTC

Rocket: Atlas V 501

Launch pad: Space Launch Complex 3E

Location: Vandenberg SFB, CA, USA

...

Latest news about this satellite

There are no fresh news available about this satellite. Check back as we update our databases every day.


Newsletter sign-up

Weekly statistics, charts and insights to help you stay on top of the space industry.